RH
64 70 65 80 86 76 61 55 45 47 46 42 35 44 60 66 57 55 69 65 62 62 64 66 79 75 73 75 75 77 73 73 73 76 74 74 74 74 74 74 72 72 74 72 72 71 76 76 76
58 67 83 83 78 62 59 47 44 42 46 41 49 55 64 80 69 79 68 64 61 62 62 60 81 79 74 75 75 74 74 76 75 74 74 72 72 72 73 72 73 73 72 72 73 72 70 73 74
68 73 85 84 70 56 54 48 52 48 40 41 56 54 62 76 68 66 61 65 64 65 64 68 77 76 77 76 76 76 76 75 74 74 73 75 72 70 70 70 70 71 72 69 71 71 71 72 72
76 80 84 77 55 48 50 48 47 46 45 48 49 64 64 56 63 64 61 62 64 66 63 72 77 75 75 76 77 76 74 74 73 74 72 71 71 73 72 72 71 70 71 71 72 68 71 73 75
79 77 76 64 52 48 48 48 46 51 50 52 52 67 70 68 63 61 62 60 61 63 63 63 77 76 77 77 76 76 75 75 74 74 74 74 72 72 74 71 71 72 72 72 71 70 70 71 73
80 76 81 65 57 53 59 49 49 53 57 58 57 60 82 70 64 60 60 62 55 58 64 61 76 78 74 71 75 74 74 74 74 73 72 72 73 73 72 70 69 70 73 72 71 70 71 72 74
74 73 77 61 59 62 57 54 49 52 55 60 54 60 86 71 60 60 64 61 61 58 66 67 61 70 74 70 71 72 73 74 73 72 72 70 68 67 67 68 68 70 72 72 71 71 70 71 74
79 84 61 61 61 72 57 49 46 47 57 46 45 63 83 67 61 61 64 65 66 62 62 66 67 64 59 58 74 73 73 71 70 69 69 68 69 69 68 73 74 70 68 72 70 71 71 73 72
73 70 70 64 58 69 49 50 46 42 48 48 50 50 51 61 60 61 68 69 66 68 66 63 65 69 70 66 63 71 71 70 70 69 70 78 80 60 58 65 68 67 68 68 70 69 72 73 71
70 70 54 59 59 68 75 52 44 46 56 69 68 62 63 64 62 62 67 66 62 63 65 56 61 63 64 57 68 69 63 62 66 70 81 64 73 74 58 62 68 68 68 69 70 69 75 67 48
67 62 50 59 54 55 56 60 52 46 60 58 66 70 66 65 64 62 58 58 67 61 59 60 60 66 59 63 66 63 63 62 61 73 74 72 70 71 59 66 60 59 64 50 54 56 49 58 48
50 48 42 50 53 60 71 60 69 57 66 51 57 60 62 65 62 59 59 58 62 64 60 56 62 66 65 59 60 60 60 62 56 65 78 74 65 68 68 63 67 66 59 67 63 53 60 54 55
51 46 49 49 56 64 62 64 64 67 60 54 63 62 61 58 60 53 46 48 55 59 59 57 64 69 66 70 65 68 65 54 61 68 75 62 63 64 58 64 60 62 61 58 60 59 54 58 53
46 48 56 56 59 60 66 69 67 74 55 64 66 60 57 57 55 52 50 50 54 53 53 50 59 66 64 69 75 70 64 65 61 66 66 71 63 69 58 62 59 61 57 56 55 58 56 55 50
46 58 58 62 59 62 56 66 74 65 57 66 63 60 58 58 53 52 51 54 50 48 48 54 60 62 68 70 70 68 66 58 58 62 69 69 66 71 67 56 58 59 63 65 65 65 60 55 51
46 51 51 59 57 62 57 57 63 63 55 59 61 61 59 58 52 48 50 52 52 49 58 58 50 57 64 69 69 63 62 60 56 60 64 69 68 71 70 56 56 59 58 56 55 56 55 55 53
41 41 51 58 55 63 60 60 63 64 58 55 56 57 56 55 54 50 47 48 50 55 59 62 60 58 64 72 65 67 70 60 53 55 60 70 66 68 62 55 59 69 57 56 55 58 60 56 53
34 38 45 43 52 62 68 63 61 61 58 58 50 51 52 51 49 45 45 45 48 53 57 61 60 65 71 67 71 64 60 57 57 56 58 68 64 71 66 58 64 64 58 59 60 69 61 58 54
33 32 31 35 55 56 59 59 52 62 60 58 51 47 48 47 42 41 42 44 48 52 58 62 66 73 70 66 67 69 55 56 58 58 64 66 67 69 70 56 61 63 60 60 69 64 70 56 57
28 30 31 50 55 51 46 46 45 54 60 57 52 46 43 41 41 42 44 45 48 53 58 64 66 74 71 64 67 63 62 58 56 59 63 62 62 64 62 66 63 63 56 67 68 67 51 52 56
27 28 30 30 55 48 50 44 57 55 57 61 50 45 40 40 40 44 46 47 45 53 58 60 69 73 72 68 68 70 69 65 60 62 58 56 65 63 62 62 59 67 61 51 64 62 62 48 54
29 24 25 40 37 29 46 34 44 46 61 60 55 47 43 39 39 41 46 48 46 48 52 58 67 73 72 73 68 74 78 58 53 59 58 60 67 66 63 58 62 68 55 64 56 53 58 58 48
25 22 23 36 34 38 46 41 31 44 49 56 52 49 43 40 38 38 39 45 45 45 49 56 70 73 71 74 69 63 67 56 54 58 68 70 73 65 56 60 66 70 58 66 66 67 67 50 44
21 21 34 37 29 28 29 30 26 39 40 37 45 46 45 39 38 37 37 41 44 44 48 53 72 79 75 74 72 75 73 69 63 64 60 59 60 61 70 68 74 73 66 65 62 67 67 64 59
18 19 27 31 30 30 35 44 26 23 31 33 36 40 36 39 38 38 40 43 46 47 49 53 68 75 73 71 70 72 72 76 76 72 59 69 62 62 72 75 78 70 73 72 68 71 68 64 56
23 20 24 40 33 28 41 31 22 22 22 28 28 30 31 33 35 36 36 41 45 46 52 53 63 72 72 70 73 74 74 63 62 68 57 56 56 58 73 78 72 73 72 72 76 63 58 65 57
20 25 16 20 32 28 24 26 20 17 22 22 25 29 32 34 34 36 36 38 43 47 56 52 59 67 70 68 70 76 76 73 66 71 72 59 66 57 68 70 73 72 71 73 76 62 68 69 69
15 16 23 21 31 36 25 26 19 20 18 28 32 28 32 34 36 37 38 41 44 45 48 54 53 64 63 63 67 70 71 72 72 72 73 70 66 68 66 68 68 70 72 74 79 72 72 76 63
12 15 18 16 19 25 29 23 20 21 24 26 26 32 33 37 36 37 36 38 45 47 46 52 51 57 60 67 71 73 69 71 72 71 72 70 69 72 70 69 70 70 72 73 78 78 74 76 75
7 12 14 18 29 20 20 20 19 34 29 34 35 39 37 39 35 37 35 38 45 48 49 53 56 58 64 70 75 72 67 69 67 73 70 69 71 69 68 67 69 67 67 70 74 73 66 73 73
Wind_Speed
11 8 3 3 2 1 4 4 6 14 10 3 13 3 5 8 3 5 7 6 13 11 10 12 10 11 11 11 12 11 11 11 11 11 11 11 12 12 12 12 12 12 12 12 12 12 13 13 16
8 6 2 1 1 4 4 3 14 8 9 17 11 9 5 5 5 10 9 11 13 11 10 10 8 10 12 10 11 10 10 10 11 12 12 12 12 12 13 13 12 12 11 11 11 13 12 13 13
5 1 1 1 1 4 5 6 11 14 15 9 7 8 4 4 10 12 8 13 12 11 10 10 11 10 10 10 9 9 10 11 12 11 11 11 12 12 12 12 12 11 11 9 11 12 11 11 11
2 2 1 2 9 5 6 14 14 14 10 6 13 10 6 4 11 6 15 13 11 10 9 11 11 11 11 11 10 11 11 11 11 10 11 10 11 11 10 10 10 11 11 10 10 11 10 10 10
1 1 2 3 9 10 13 9 4 5 5 7 2 7 10 3 8 17 14 12 12 11 9 10 11 11 11 10 11 10 10 10 10 9 9 10 11 10 10 10 9 11 11 11 11 10 10 10 9
2 1 2 5 13 11 7 7 5 6 7 9 12 12 5 8 15 14 13 11 10 10 9 9 11 11 11 10 9 10 10 10 10 9 10 9 9 8 8 8 9 9 11 11 10 10 10 11 12
0 0 2 7 12 7 4 3 5 7 9 7 10 8 5 11 12 13 12 11 9 9 8 9 9 10 10 10 9 8 9 10 9 8 7 7 6 5 6 7 7 8 10 10 10 10 10 10 11
1 1 2 4 4 6 4 4 7 5 8 11 8 7 9 12 13 13 12 10 9 8 8 8 7 8 7 9 8 8 8 7 7 7 6 5 4 5 4 5 7 9 9 9 10 9 10 9 9
1 1 3 2 4 7 7 5 5 7 10 3 3 10 14 18 15 13 12 10 8 7 8 8 7 7 6 5 7 7 7 7 6 6 5 5 3 5 7 7 9 9 9 9 9 9 9 7 7
2 2 2 2 7 9 4 3 10 7 5 7 14 16 19 17 16 14 13 11 10 10 8 7 8 7 7 5 4 4 4 3 3 4 3 3 5 4 5 8 9 9 9 10 9 9 9 4 4
2 2 5 4 10 12 9 5 2 11 4 7 20 20 19 17 13 13 12 12 12 10 8 8 7 7 6 4 3 2 2 1 2 3 4 4 4 4 5 5 5 7 8 6 7 7 4 4 3
2 5 1 7 7 6 5 9 7 4 3 8 18 19 16 17 14 13 12 12 11 11 10 9 7 7 6 3 3 3 2 2 2 3 4 5 5 5 4 4 5 6 5 6 5 4 5 4 3
5 2 3 7 8 8 6 6 5 6 6 16 17 17 17 15 13 10 11 11 10 10 10 9 8 7 6 5 4 3 2 2 3 3 4 4 5 5 4 5 5 5 5 5 5 4 4 3 2
4 7 8 7 7 7 7 4 1 2 9 17 19 18 16 14 14 10 11 11 11 10 10 10 9 8 7 5 4 3 3 2 2 3 4 4 4 4 5 5 5 6 5 5 4 3 2 1 1
10 8 6 6 5 3 6 5 5 9 12 17 19 16 15 14 12 14 12 12 13 11 11 10 9 8 7 5 5 3 3 3 3 3 4 4 3 4 4 4 4 5 4 5 4 2 1 2 3
4 3 4 5 5 3 3 1 8 13 15 15 17 15 15 15 15 13 12 12 11 12 12 10 8 8 7 5 5 3 3 3 3 4 4 4 4 4 4 4 4 4 4 4 3 3 2 3 3
3 3 4 3 8 4 9 1 5 14 13 13 14 15 15 15 14 13 12 12 12 12 11 10 10 9 7 6 5 4 4 2 2 2 3 5 4 5 4 4 5 5 4 3 3 3 3 2 2
5 5 3 3 8 9 8 9 3 12 15 14 15 16 16 16 17 15 14 14 13 12 11 11 9 9 7 5 4 3 3 3 1 2 2 5 5 6 6 5 5 5 4 3 3 4 3 3 3
6 6 2 1 3 8 11 10 11 13 15 16 16 16 17 17 17 14 14 14 13 13 12 11 10 9 7 6 5 4 4 3 2 2 1 3 5 7 7 5 5 5 4 3 4 3 4 3 1
7 5 3 2 4 6 4 11 10 15 18 17 17 18 17 18 17 16 15 15 15 15 14 12 12 11 9 7 4 2 3 3 2 1 0 4 5 6 7 6 5 5 4 4 4 3 2 1 1
8 9 5 1 5 5 4 6 9 11 14 15 17 17 18 19 19 18 17 17 16 15 15 14 13 13 10 9 5 4 4 4 3 3 2 2 3 4 5 6 5 5 4 4 4 4 4 2 2
14 9 5 6 4 3 3 3 6 13 16 19 20 19 20 20 19 18 19 18 17 17 15 15 14 13 11 11 8 7 4 7 5 5 4 4 4 5 5 5 4 4 4 4 3 3 3 2 3
10 9 6 5 3 3 4 5 2 9 16 21 24 22 22 23 21 21 20 20 18 16 16 15 15 13 12 12 10 8 6 5 5 5 7 5 4 6 6 5 4 4 4 4 4 4 3 2 3
9 8 6 4 2 9 3 8 5 7 15 19 21 23 23 22 22 21 20 20 19 18 16 15 16 14 14 13 12 11 10 8 6 7 6 5 4 5 6 7 6 5 4 4 4 3 4 2 2
10 12 8 8 6 10 3 6 11 7 9 15 24 26 25 23 21 20 20 19 18 19 19 16 17 16 16 15 14 12 10 10 10 10 8 7 6 7 7 7 6 5 5 4 4 4 4 4 2
16 16 9 12 10 10 2 8 3 3 7 8 14 22 23 24 23 22 23 21 20 21 20 19 17 15 16 16 14 12 11 8 8 10 7 7 8 7 7 8 7 7 7 5 5 4 4 3 4
9 12 11 6 1 7 4 5 11 8 4 7 12 14 21 23 23 24 22 21 20 20 19 21 18 16 16 17 14 12 11 10 8 10 8 7 7 7 7 7 8 8 7 6 5 4 4 4 4
10 12 11 7 15 15 8 6 8 7 4 3 8 16 19 23 24 22 19 19 18 19 19 18 20 19 18 18 14 12 12 11 9 8 10 10 8 9 8 9 8 8 7 7 6 5 5 5 4
8 9 7 10 8 14 10 9 5 9 7 10 9 12 16 20 22 20 19 20 18 17 19 18 18 19 18 16 14 13 13 12 10 9 9 10 9 8 9 9 9 9 8 8 8 7 6 7 6
18 19 18 11 12 7 10 15 3 5 6 5 4 5 11 14 19 20 18 17 17 17 18 18 17 17 17 15 14 15 14 13 13 11 10 9 9 8 10 9 9 9 9 9 10 10 8 9 8
Wind_Direction
145 135 152 204 212 268 83 89 113 129 145 160 150 162 94 41 29 86 131 136 138 141 143 145 145 133 127 132 135 123 126 130 131 122 115 116 111 108 102 107 107 105 101 103 102 96 92 93 91
142 145 194 337 220 110 91 131 137 142 122 124 107 114 69 77 83 120 135 148 142 139 140 144 142 137 133 129 131 133 130 126 131 123 123 119 110 107 106 103 99 100 107 107 106 97 92 89 90
155 265 237 258 90 76 113 137 127 120 136 141 109 71 70 83 119 137 133 144 140 138 139 132 139 128 121 122 122 128 126 120 119 119 119 112 116 112 106 102 101 100 98 102 91 96 94 98 98
192 172 178 239 91 64 115 123 121 129 109 68 115 79 90 96 138 137 144 143 141 138 138 133 132 135 126 121 120 121 125 125 127 129 118 110 110 105 99 98 109 101 94 92 95 93 94 94 96
167 146 254 100 67 98 104 121 70 71 89 104 90 106 108 93 120 136 144 144 143 138 138 134 131 123 121 118 118 117 118 120 116 112 117 109 108 112 112 112 107 97 98 96 94 98 94 79 71
147 278 25 82 103 104 69 53 67 86 93 105 104 114 97 124 141 142 142 144 142 137 132 137 127 131 126 119 119 120 116 115 118 118 104 105 109 107 108 107 103 104 103 101 106 103 89 74 75
348 146 57 102 126 109 83 37 77 94 115 105 128 104 110 147 147 140 139 143 142 138 136 132 131 124 116 127 127 126 119 121 120 109 104 100 104 112 127 126 128 121 113 115 107 99 88 78 71
255 258 67 55 151 85 87 110 90 107 90 120 141 153 160 158 151 141 137 141 144 147 142 129 134 131 140 144 138 131 124 126 127 122 118 133 134 142 140 144 155 138 124 117 109 97 87 80 74
78 107 90 91 140 100 130 129 73 109 122 82 105 151 134 145 149 142 145 145 152 159 150 148 143 134 137 140 136 150 147 142 138 133 141 80 79 118 137 120 152 146 136 135 119 105 102 106 86
212 52 98 163 128 125 120 123 124 141 115 83 103 113 134 151 156 154 162 157 163 165 162 164 157 149 147 151 145 144 139 146 126 124 103 109 106 104 111 121 136 139 132 127 122 119 111 163 93
168 238 132 137 128 121 124 101 127 149 80 154 145 143 151 157 165 166 170 170 169 169 171 172 168 159 159 151 150 178 143 138 122 139 138 117 111 102 98 111 130 133 143 148 147 138 129 98 60
234 249 189 142 140 124 115 129 121 125 136 148 145 149 156 162 172 175 177 174 172 172 179 172 175 170 164 169 179 179 183 150 183 149 142 132 130 115 109 109 116 133 139 129 133 126 105 113 95
219 119 90 137 136 105 127 115 122 113 132 142 144 158 165 174 171 181 179 176 175 180 178 182 177 182 171 175 169 187 183 155 94 121 143 147 135 124 127 114 118 115 125 128 129 128 131 127 85
156 132 109 105 135 142 144 147 48 182 152 149 157 169 172 185 172 168 178 178 177 183 185 174 189 178 177 172 179 180 170 165 144 131 151 140 133 129 121 128 121 121 127 127 129 128 137 86 312
125 117 108 129 158 163 159 161 210 152 160 159 168 175 179 191 179 182 181 183 175 177 177 180 184 185 188 182 178 188 187 166 140 145 139 165 163 157 128 131 134 132 129 130 129 161 193 259 266
105 125 193 153 183 151 219 258 154 164 162 170 175 182 187 192 194 191 186 183 181 172 184 178 189 185 193 192 175 188 202 180 146 148 160 160 161 155 157 145 142 142 153 151 176 196 226 249 260
179 165 214 173 206 164 214 252 138 167 180 177 185 187 194 195 201 198 200 191 183 181 182 184 188 184 184 189 175 176 177 194 143 152 155 162 170 167 172 159 143 161 154 168 177 184 230 230 257
177 188 185 232 192 208 208 232 162 185 189 192 191 194 197 201 204 199 204 203 188 191 186 187 188 177 171 160 172 159 189 179 217 211 186 166 174 180 180 162 162 174 162 175 193 229 216 266 283
159 151 206 156 178 206 224 242 231 193 204 196 197 196 199 199 207 203 203 202 197 194 185 194 188 176 170 169 173 148 173 167 192 230 248 165 170 169 169 165 172 194 189 145 175 174 196 212 252
192 179 186 126 172 225 234 251 227 203 206 206 194 200 205 203 202 206 198 198 198 195 193 190 193 182 182 181 170 155 159 167 173 184 247 138 159 170 166 160 173 180 154 165 175 173 169 173 91
208 212 173 336 167 233 278 250 186 208 210 205 217 208 211 208 203 203 198 199 195 198 198 195 192 186 193 179 153 122 125 129 153 182 225 225 221 193 188 175 165 176 199 193 195 198 227 176 157
219 183 174 148 204 327 228 306 213 193 200 210 213 210 208 211 209 201 198 203 200 198 198 197 197 188 192 187 179 178 190 173 181 183 185 205 230 216 200 191 170 189 211 206 195 203 251 232 227
221 172 196 156 183 272 189 259 148 191 206 209 212 212 213 207 204 205 203 198 205 201 194 194 193 193 191 192 193 189 190 199 172 170 176 190 192 196 191 194 195 192 214 208 206 197 220 212 275
159 121 87 88 192 257 237 240 245 191 219 212 208 209 214 210 210 207 201 202 204 200 198 193 188 192 195 200 195 195 185 191 192 184 184 191 193 191 202 200 200 189 182 204 212 208 214 242 263
191 189 216 223 216 240 72 229 262 239 228 214 201 205 205 209 210 207 201 199 201 198 197 192 194 190 195 199 198 196 190 187 201 189 188 181 196 195 201 199 194 195 200 195 190 202 215 209 230
205 207 216 216 220 240 127 241 234 278 256 220 212 210 205 204 205 205 202 200 195 195 196 192 192 192 195 195 201 195 197 191 199 199 196 199 201 205 203 197 191 189 191 189 189 202 226 214 224
180 209 217 230 329 238 216 251 267 270 255 233 224 202 201 197 197 201 200 198 195 195 192 191 195 196 198 199 191 200 197 199 196 195 200 204 210 207 212 216 196 194 197 192 188 213 211 219 228
222 172 188 206 212 223 216 255 242 255 340 274 233 215 202 200 195 193 191 193 195 197 194 195 196 193 196 201 196 197 203 206 198 197 205 206 202 205 202 210 210 202 204 203 202 208 202 216 224
176 193 214 227 237 222 230 238 205 258 313 296 270 222 203 194 196 196 194 189 191 187 192 196 198 195 198 202 194 194 199 206 199 196 213 216 211 209 211 213 215 214 215 212 216 227 224 220 225
216 209 205 210 190 232 245 240 87 304 301 302 299 209 194 201 197 191 189 188 189 192 194 193 193 198 198 195 191 195 201 203 211 206 205 211 218 214 219 222 221 224 224 226 226 231 233 229 235